Галимый

Россия / Магаданская область     62°21′15″N   155°57′28″E
темп.,
°C
ветер,
м/с
пор.,
м/с
влажн.,
%
обл.,
%
осадки,
мм/ч
давл.,
гПа
погр.,
м
8 марта, пн
пн823:00−30сз449298 0.0 100357
02:00−32ссз339590 0.0 100431
05:00−34ссз239495 0.1 100421
08:00−35ссз229499 0.0 100521
11:00−30ссз238999 0.0 1005278
14:00−28сз357998 0.0 1004787
17:00−30сз118799 0.0 100419
20:00−34зсз119490 0.0 100619
9 марта, вт
вт923:00−35зсз129465 0.0 100819
02:00−35сз11940 0.0 100819
05:00−36сз11950 0.0 100819
08:00−35зсз01890 0.0 101019
11:00−28в11820 0.0 100967
14:00−25юв11790 0.0 1009143
17:00−27юв11870 0.0 100919
20:00−31ю12870 0.0 101119
10 марта, ср
ср1023:00−32ю12880 0.0 101319
02:00−33ю12840 0.0 101419
05:00−33ю22810 0.0 101519
08:00−33ю22800 0.0 101619
11:00−28ю22810 0.0 1016111
14:00−25ю23830 0.0 1015165
17:00−28ю22910 0.0 101522
20:00−32ю22900 0.0 101719
11 марта, чт
чт1123:00−32ю22910 0.0 101719
02:00−32ю22880 0.0 101720
05:00−32ю22870 0.0 101619
08:00−30ю22800 0.0 101619
11:00−26ю23820 0.0 101391
14:00−23ю23830 0.0 1011145
17:00−24ю22890 0.0 101122
20:00−27ю22980 0.0 101119
12 марта, пт
пт1223:00−27ююз1210026 0.0 101119
02:00−27ю1110095 0.0 100919
05:00−26сз1110096 0.0 100820
08:00−24ссз1110088 0.0 100721
11:00−18с239394 0.2 1005192
14:00−16ссз3491100 0.3 1003300
17:00−17ссз3494100 0.4 1002304
20:00−19ссз3397100 0.2 100365